Weather History for Hurlburt Field, FL

Change the Weather History Date:

Thursday, November 14, 2013

  Actual Average Record
Temperature  
Mean Temperature 48 °F -  
Max Temperature 63 °F 69 °F 80 °F (2008)
Min Temperature 32 °F 50 °F 32 °F (2013)
Degree Days  
Heating Degree Days 18    
Moisture  
Dew Point 36 °F    
Average Humidity 57    
Maximum Humidity 69    
Minimum Humidity 43    
Precipitation  
Precipitation 0.00 in - - ()
Sea Level Pressure  
Sea Level Pressure 30.31 in    
Wind  
Wind Speed 7 mph (ENE)    
Max Wind Speed 13 mph    
Max Gust Speed 21 mph    
Visibility 10 miles    
Events      
Averages and records for this station are not official NWS values.
T = Trace of Precipitation, MM = Missing Value Source: NWS Daily Summary

Daily Weather History Graph

Daily Weather History Graph

Search for Another Location

Airport:

Trip Planner

Search our weather history database for the weather conditions in past years. The results will help you decide how hot, cold, wet, or windy it might be!

Date:

Astronomy

Nov. 14, 2013 Rise Set
Actual Time 6:11 AM CST 4:50 PM CST
Civil Twilight 5:46 AM CST 5:15 PM CST
Nautical Twilight 5:17 AM CST 5:44 PM CST
Astronomical Twilight 4:49 AM CST 6:13 PM CST
Moon 3:01 PM CST (11/14) 3:17 AM CST (11/14)
Length of Visible Light 11h 29m
Length of Day
10h 38m
Waxing Gibbous, 92% of the Moon is Illuminated
Nov 14
Waxing Gibbous
Nov 17
Full
Nov 25
Last Quarter
Dec 2
New
Dec 9
First Quarter

Hourly Weather History & Observations

Time (CST) Temp. Windchill Dew Point Humidity Pressure Visibility Wind Dir Wind Speed Gust Speed Precip Events Conditions
12:58 AM 36.7 °F 31.2 °F 21.0 °F 53% 30.40 in 10.0 mi NE 6.9 mph - N/A   Clear
1:58 AM 35.6 °F 30.7 °F 21.0 °F 55% 30.39 in 10.0 mi NE 5.8 mph - N/A   Clear
2:58 AM 34.2 °F 29.0 °F 21.7 °F 60% 30.39 in 10.0 mi NE 5.8 mph - N/A   Clear
3:58 AM 33.4 °F 28.1 °F 22.8 °F 65% 30.39 in 10.0 mi NE 5.8 mph - N/A   Clear
4:58 AM 32.4 °F 27.9 °F 23.4 °F 69% 30.39 in 10.0 mi NE 4.6 mph - N/A   Clear
5:58 AM 35.4 °F 27.8 °F 22.6 °F 60% 30.39 in 10.0 mi NE 10.4 mph - N/A   Clear
6:58 AM 37.9 °F 30.0 °F 22.3 °F 53% 30.39 in 10.0 mi ENE 12.7 mph - N/A   Partly Cloudy
7:58 AM 43.5 °F 37.1 °F 22.6 °F 44% 30.40 in 10.0 mi ENE 12.7 mph - N/A   Scattered Clouds
8:56 AM 50.0 °F - 28.4 °F 43% 30.39 in 10.0 mi East 10.4 mph 20.7 mph N/A   Partly Cloudy
9:56 AM 55.4 °F - 35.6 °F 47% 30.39 in 10.0 mi East 10.4 mph - N/A   Scattered Clouds
10:59 AM 59.0 °F - 41.0 °F 51% 30.37 in 10.0 mi East 5.8 mph - N/A   Clear
11:58 AM 60.4 °F - 43.7 °F 54% 30.35 in 10.0 mi SE 4.6 mph - 0.00 in   Clear
12:58 PM 63.5 °F - 45.9 °F 53% 30.30 in 10.0 mi ENE 6.9 mph - 0.00 in   Clear
1:58 PM 63.3 °F - 46.0 °F 53% 30.27 in 10.0 mi East 10.4 mph - 0.00 in   Clear
2:58 PM 62.8 °F - 46.6 °F 55% 30.25 in 10.0 mi East 8.1 mph - N/A   Clear
3:58 PM 61.3 °F - 46.8 °F 59% 30.25 in 10.0 mi East 5.8 mph - N/A   Clear
4:58 PM 58.5 °F - 46.0 °F 63% 30.24 in 10.0 mi ENE 5.8 mph - 0.00 in   Clear
5:58 PM 56.1 °F - 46.0 °F 69% 30.24 in 10.0 mi ENE 5.8 mph - N/A   Clear
6:58 PM 56.3 °F - 43.9 °F 63% 30.24 in 10.0 mi ENE 5.8 mph - N/A   Clear
7:58 PM 55.8 °F - 42.6 °F 61% 30.24 in 10.0 mi ENE 6.9 mph - N/A   Clear
8:58 PM 56.7 °F - 42.6 °F 59% 30.23 in 10.0 mi ENE 8.1 mph - N/A   Scattered Clouds
9:58 PM 57.2 °F - 42.3 °F 57% 30.21 in 10.0 mi ENE 5.8 mph - N/A   Clear
10:58 PM 58.8 °F - 44.2 °F 58% 30.22 in 10.0 mi East 10.4 mph - N/A   Overcast
11:58 PM 58.5 °F - 46.2 °F 64% 30.19 in 10.0 mi East 10.4 mph - N/A   Partly Cloudy